Location: Theydon Bois
(51.6750°N, 0.1050°E)
Time: 23:35:00
(UTC+01:00)

Cosmos 1727 Rocket - Visible Passes

Search period start: 20 July 2018 00:00
Search period end: 30 July 2018 00:00
Orbit: 962 x 995 km, 82.9° (Epoch: 19 July)

Date Brightness Start Highest point End Pass type
(mag) Time Alt. Az. Time Alt. Az. Time Alt. Az.
20 Jul 4.1 00:19:08 26° S 00:22:49 67° E 00:29:09 10° NNE visible
20 Jul 5.5 02:03:51 11° WSW 02:08:50 28° WNW 02:14:13 10° N visible
20 Jul 5.5 23:00:32 13° ESE 23:04:23 23° E 23:09:09 10° NNE visible
21 Jul 4.1 00:45:15 25° SSW 00:49:10 77° WNW 00:55:34 10° N visible
21 Jul 6.0 02:31:38 10° W 02:35:48 18° NW 02:39:59 10° NNW visible
21 Jul 4.8 23:26:38 20° SE 23:30:21 37° E 23:36:07 10° NNE visible
22 Jul 4.7 01:11:21 19° SW 01:15:42 47° WNW 01:21:51 10° N visible
22 Jul 6.4 03:01:09 10° WNW 03:02:58 11° NW 03:04:47 10° NNW visible
22 Jul 6.0 22:10:07 10° E 22:12:23 12° ENE 22:14:38 10° NE visible
22 Jul 4.2 23:52:44 25° SSE 23:56:30 61° E 00:02:46 10° NNE visible
23 Jul 5.4 01:37:27 12° WSW 01:42:24 30° WNW 01:47:57 10° N visible
23 Jul 5.5 22:34:05 12° ESE 22:38:08 21° E 22:42:39 10° NNE visible
24 Jul 4.1 00:18:48 24° SSW 00:22:49 83° W 00:29:14 10° N visible
24 Jul 6.0 02:04:55 10° WSW 02:09:19 19° WNW 02:13:46 10° NNW visible
24 Jul 4.9 23:00:09 18° SE 23:04:04 34° E 23:09:42 10° NNE visible
25 Jul 4.6 00:44:52 19° SW 00:49:18 52° WNW 00:55:31 10° N visible
25 Jul 6.3 02:34:02 10° WNW 02:36:27 12° NW 02:38:53 10° NNW visible
25 Jul 6.0 21:44:42 10° E 21:46:09 11° ENE 21:47:35 10° ENE visible
25 Jul 4.3 23:26:12 23° SSE 23:30:10 56° E 23:36:23 10° NNE visible
26 Jul 5.4 01:10:56 12° SW 01:15:59 32° WNW 01:21:39 10° N visible
26 Jul 5.6 22:07:38 10° ESE 22:11:52 19° ENE 22:16:07 10° NE visible
26 Jul 4.0 23:52:14 23° S 23:56:28 89° W 00:02:52 10° N visible
27 Jul 6.0 01:38:14 10° WSW 01:42:52 21° WNW 01:47:32 10° NNW visible
27 Jul 5.0 22:33:32 15° SE 22:37:47 31° E 22:43:15 10° NNE visible
28 Jul 4.5 00:18:15 18° SSW 00:22:55 56° WNW 00:29:12 10° N visible
28 Jul 6.3 02:07:04 10° WNW 02:09:58 13° NW 02:12:51 10° NNW visible
28 Jul 4.3 22:59:31 19° SSE 23:03:52 52° E 23:10:00 10° NNE visible
29 Jul 5.3 00:44:14 12° SW 00:49:34 35° WNW 00:55:21 10° N visible
29 Jul 5.6 21:41:41 10° ESE 21:45:37 17° ENE 21:49:34 10° NE visible
29 Jul 4.0 23:25:30 20° S 23:30:07 84° E 23:36:30 10° N visible
